Meteo Giornale » Osservazioni meteo Italia » Firenze-Peretola

ore: 05:20 - Osservazioni Meteo Firenze-Peretola
Lat. 43° 48' N Lon. 11° 12' E Alt. 40 metri s.l.m.

sereno Europe/Rome

3 °C

Sereno

Temp. 24 Ore

1 °C

15 °C

Nord

0 Km/h

Dew point 2 °C

Umidità 93 %

Visibilità  10 Km

Il sole sorge alle ore 07:14

Il sole tramonta alle ore 16:47

Data e Ora Cielo e Fenomeni T °C DP °C Um. % Pres. hPa Vis. km Vento km/h
Oggi h: 05:20 sereno Sereno 3 2 93 1015 10 N 0
Oggi h: 04:50 sereno Sereno 2 1 93 1015 10 N 0
Oggi h: 04:20 sereno Sereno 1 0 93 1015 10 N 1.8
Oggi h: 03:50 sereno Sereno 2 1 93 1016 10 N 0
Oggi h: 03:20 sereno Sereno 2 1 93 1016 10 N 0
Oggi h: 02:50 sereno Sereno 3 2 93 1016 10 N 0
Oggi h: 02:20 sereno Sereno 3 2 93 1016 10 N 1.8
Oggi h: 01:50 sereno Sereno 3 2 93 1016 10 N 0
Oggi h: 01:20 sereno Sereno 3 1 86 1016 10 N 1.8
Oggi h: 00:50 sereno Sereno 3 2 93 1017 10 N 0
Oggi h: 00:20 sereno Sereno 3 1 86 1017 10 N 0
Ieri h: 23:50 sereno Sereno 3 1 86 1017 10 N 5.5
Ieri h: 23:20 sereno Sereno 5 2 80 1017 10 N 5.5
Ieri h: 22:50 sereno Sereno 4 2 86 1017 10 N 3.7
Ieri h: 22:20 sereno Sereno 4 1 80 1017 10 N 3.7
Ieri h: 21:50 sereno Sereno 5 2 80 1017 10 N 3.7
Ieri h: 21:20 sereno Sereno 5 2 80 1017 10 N 3.7
Ieri h: 20:50 sereno Sereno 7 2 70 1017 10 N 3.7
Ieri h: 20:20 sereno Sereno 9 3 66 1017 10 N 5.5
Ieri h: 19:50 sereno Sereno 9 3 66 1017 10 N 5.5
Ieri h: 19:20 sereno Sereno 10 3 61 1017 10 N/NE 11.1
Ieri h: 18:50 sereno Sereno 10 3 61 1017 10 N/NE 7.4
Ieri h: 18:20 sereno Sereno 10 3 61 1017 10 N 7.4
Ieri h: 17:20 sereno Sereno 11 3 57 1016 10 N/NE 13
Ieri h: 16:50 sereno Sereno 12 3 54 1016 10 NE 13
Ieri h: 16:20 sereno Sereno 13 2 47 1016 10 N/NE 9.3
Ieri h: 15:50 sereno Sereno 14 3 47 1016 10 N/NE 9.3
Ieri h: 15:20 sereno Sereno 15 2 41 1016 10 N 14.8
Ieri h: 14:50 sereno Sereno 15 3 44 1016 10 N/NE 14.8
Ieri h: 14:20 sereno Sereno 15 2 41 1016 10 N/NE 14.8
Ieri h: 13:50 sereno Sereno 15 3 44 1016 10 N/NE 16.7
Ieri h: 13:20 sereno Sereno 15 2 41 1016 10 N/NE 18.5
Ieri h: 12:50 sereno Sereno 15 3 44 1016 10 N/NE 16.7
Ieri h: 12:20 sereno Sereno 15 3 44 1017 10 N 18.5
Ieri h: 11:50 sereno Sereno 15 3 44 1017 10 N/NE 14.8
Ieri h: 11:20 sereno Sereno 14 3 47 1017 10 N 20.3
Ieri h: 10:50 sereno Sereno 14 4 50 1017 10 N 11.1
Ieri h: 10:20 sereno Sereno 14 4 50 1017 10 N 16.7
Ieri h: 09:50 sereno Sereno 14 4 50 1017 10 N 9.3
Ieri h: 09:20 sereno Sereno 14 4 50 1017 10 N 7.4
Ieri h: 08:50 sereno Sereno 13 4 54 1017 10 E 9.3
Ieri h: 08:20 sereno Sereno 12 4 57 1017 10 N 9.3
Ieri h: 07:50 poco_nuvoloso Poco Nuvoloso 11 5 66 1017 10 N 5.5
Ieri h: 07:20 poco_nuvoloso Poco Nuvoloso 9 4 70 1016 10 S 7.4
Ieri h: 06:50 poco_nuvoloso Poco Nuvoloso 9 4 70 1016 10 N 5.5
Ieri h: 06:20 poco_nuvoloso Poco Nuvoloso 9 4 70 1016 10 S/SO 9.3
Ieri h: 05:50 poco_nuvoloso Poco Nuvoloso 9 3 66 1016 10 N 5.5